Location: Newark
(45.4422°N, 16.2769°E)
Time: 21:09:45
(UTC+00:00)

S-56A Canister/Altair - Visible Passes

Search period start: 12 December 2019 00:00
Search period end: 22 December 2019 00:00
Orbit: 633 x 2499 km, 38.9° (Epoch: 11 December)

Date Brightness Start Highest point End Pass type
(mag) Time Alt. Az. Time Alt. Az. Time Alt. Az.
14 Dec 11.8 05:45:58 10° S 05:54:40 23° SE 06:04:48 10° E visible
15 Dec 11.7 05:14:09 10° S 05:21:42 20° SE 05:30:28 10° E visible
15 Dec 12.2 15:41:12 10° WSW 15:45:25 12° WSW 15:49:19 10° SW visible
16 Dec 11.8 04:42:42 10° SSE 04:48:49 16° SE 04:55:49 10° E visible
17 Dec 11.8 04:11:56 10° SE 04:16:01 12° ESE 04:20:31 10° ESE visible
18 Dec 11.2 05:36:10 10° SSW 05:45:42 35° SE 05:57:53 10° E visible
19 Dec 11.1 05:03:58 10° SSW 05:12:41 31° SE 05:23:53 10° E visible
20 Dec 11.1 04:31:54 10° S 04:39:46 26° SE 04:49:50 10° E visible
21 Dec 11.0 04:00:02 10° S 04:06:56 22° SE 04:15:39 10° E visible
